Location: Mannheim
(49.4880°N, 8.4650°E)
Time: 05:53:43
(UTC+02:00)

ACS3 Solar Sail - Pass Details

Date: 25 September 2024
Orbit: 963 x 1036 km, 97.4° (Epoch: 04 October)

Event Time Altitude Azimuth Distance (km) Brightness Sun altitude
Exits shadow 21:52:36 21° 186° (S) 2,146 3.3 -25.1°
Maximum altitude 21:57:00 61° 261° (W) 1,171 2.3 -25.7°
Drops below altitude 10° 22:03:21 10° 341° (NNW) 2,834 4.9 -26.6°
Sets 22:05:55 0° 345° (NNW) 3,783 5.6 -26.9°
